| time (UTC) | temp F | wind direction | speed MPH | gust MPH | rain 1hr in | rain 24hr in | rain mn in | humidity % | barometer mb |
| 20260831063204 | 60 | 143 | 0.0 | 0.0 | 0.00 | 0.00 | 0.00 | 98 | 1018.9 |
| 20260831062704 | 60 | 127 | 0.0 | 0.0 | 0.00 | 0.00 | 0.00 | 97 | 1019.0 |
| 20260831062204 | 60 | 87 | 0.0 | 0.0 | 0.00 | 0.00 | 0.00 | 97 | 1019.1 |
| 20260831061704 | 60 | 91 | 0.0 | 0.0 | 0.00 | 0.00 | 0.00 | 97 | 1018.9 |
| 20260831061204 | 60 | 91 | 0.0 | 0.0 | 0.00 | 0.00 | 0.00 | 97 | 1019.0 |
| 20260831060704 | 60 | 91 | 0.0 | 0.0 | 0.00 | 0.00 | 0.00 | 97 | 1018.9 |
| 20260831060205 | 60 | 91 | 0.0 | 0.0 | 0.00 | 0.00 | 0.00 | 97 | 1019.0 |
| 20260831055704 | 60 | 91 | 0.0 | 0.0 | 0.00 | 0.00 | 0.00 | 97 | 1019.2 |
| 20260831055204 | 60 | 91 | 0.0 | 0.0 | 0.00 | 0.00 | 0.00 | 97 | 1019.1 |
| 20260831054705 | 60 | 92 | 0.0 | 0.0 | 0.00 | 0.00 | 0.00 | 96 | 1019.2 |
| 20260831054204 | 60 | 92 | 0.0 | 0.0 | 0.00 | 0.00 | 0.00 | 96 | 1019.2 |
| 20260831053704 | 60 | 94 | 0.0 | 0.0 | 0.00 | 0.00 | 0.00 | 97 | 1019.1 |
| 20260831053204 | 60 | 123 | 0.0 | 0.0 | 0.00 | 0.00 | 0.00 | 97 | 1019.0 |
| 20260831051704 | 60 | 116 | 0.0 | 1.0 | 0.00 | 0.00 | 0.00 | 96 | 1018.9 |
| 20260831051204 | 61 | 274 | 0.0 | 0.0 | 0.00 | 0.00 | 0.00 | 96 | 1018.8 |
| 20260831050704 | 61 | 269 | 0.0 | 0.0 | 0.00 | 0.00 | 0.00 | 96 | 1018.9 |
| 20260831050204 | 61 | 264 | 0.0 | 0.0 | 0.00 | 0.00 | 0.00 | 96 | 1018.9 |
| 20260831045704 | 61 | 259 | 0.0 | 0.0 | 0.00 | 0.00 | 0.00 | 97 | 1018.9 |
| 20260831045205 | 61 | 180 | 0.0 | 1.0 | 0.00 | 0.00 | 0.00 | 97 | 1018.9 |
| 20260831044704 | 61 | 180 | 1.0 | 3.0 | 0.00 | 0.00 | 0.00 | 96 | 1019.0 |
| 20260831044204 | 61 | 114 | 0.0 | 3.0 | 0.00 | 0.00 | 0.00 | 95 | 1019.0 |
| 20260831043704 | 61 | 38 | 0.0 | 0.0 | 0.00 | 0.00 | 0.00 | 96 | 1019.0 |
| 20260831043204 | 61 | 38 | 0.0 | 0.0 | 0.00 | 0.00 | 0.00 | 96 | 1019.0 |
| 20260831042704 | 61 | 24 | 0.0 | 0.0 | 0.00 | 0.00 | 0.00 | 95 | 1019.0 |
| 20260831042205 | 61 | 310 | 0.0 | 0.0 | 0.00 | 0.00 | 0.00 | 96 | 1018.9 |
| 20260831041704 | 62 | 292 | 0.0 | 0.0 | 0.00 | 0.00 | 0.00 | 96 | 1018.9 |
| 20260831041204 | 62 | 292 | 0.0 | 0.0 | 0.00 | 0.00 | 0.00 | 96 | 1018.9 |
| 20260831040705 | 62 | 303 | 0.0 | 0.0 | 0.00 | 0.00 | 0.00 | 96 | 1019.0 |
| 20260831035704 | 62 | 304 | 0.0 | 0.0 | 0.00 | 0.00 | 0.00 | 95 | 1019.0 |
| 20260831034704 | 62 | 304 | 0.0 | 0.0 | 0.00 | 0.00 | 0.00 | 95 | 1018.9 |
| 20260831034204 | 62 | 304 | 0.0 | 0.0 | 0.00 | 0.00 | 0.00 | 96 | 1019.0 |
| 20260831033704 | 62 | 304 | 0.0 | 0.0 | 0.00 | 0.00 | 0.00 | 95 | 1019.0 |
| 20260831033204 | 62 | 304 | 0.0 | 0.0 | 0.00 | 0.00 | 0.00 | 95 | 1019.1 |
| 20260831032704 | 62 | 304 | 0.0 | 0.0 | 0.00 | 0.00 | 0.00 | 95 | 1019.1 |
| 20260831032204 | 63 | 304 | 0.0 | 0.0 | 0.00 | 0.00 | 0.00 | 95 | 1019.1 |
| 20260831031704 | 63 | 304 | 1.0 | 1.0 | 0.00 | 0.00 | 0.00 | 95 | 1019.1 |
| 20260831031204 | 63 | 304 | 1.0 | 2.0 | 0.00 | 0.00 | 0.00 | 95 | 1019.2 |
| 20260831030705 | 63 | 314 | 0.0 | 0.0 | 0.00 | 0.00 | 0.00 | 94 | 1019.2 |
| 20260831030204 | 63 | 314 | 0.0 | 1.0 | 0.00 | 0.00 | 0.00 | 93 | 1019.2 |
| 20260831025704 | 63 | 314 | 1.0 | 2.0 | 0.00 | 0.00 | 0.00 | 93 | 1019.0 |
| 20260831025204 | 64 | 319 | 1.0 | 2.0 | 0.00 | 0.00 | 0.00 | 93 | 1019.0 |
| 20260831024704 | 64 | 321 | 0.0 | 1.0 | 0.00 | 0.00 | 0.00 | 92 | 1019.0 |
| 20260831024204 | 64 | 68 | 0.0 | 1.0 | 0.00 | 0.00 | 0.00 | 92 | 1018.9 |
| 20260831023704 | 64 | 68 | 0.0 | 0.0 | 0.00 | 0.00 | 0.00 | 91 | 1018.9 |
| 20260831022704 | 65 | 90 | 0.0 | 1.0 | 0.00 | 0.00 | 0.00 | 92 | 1018.8 |
| 20260831022204 | 65 | 311 | 1.0 | 6.0 | 0.00 | 0.00 | 0.00 | 92 | 1018.9 |
| 20260831021705 | 65 | 295 | 0.0 | 2.0 | 0.00 | 0.00 | 0.00 | 92 | 1018.8 |
| 20260831021204 | 65 | 269 | 0.0 | 0.0 | 0.00 | 0.00 | 0.00 | 92 | 1018.8 |
| 20260831020704 | 65 | 91 | 0.0 | 0.0 | 0.00 | 0.00 | 0.00 | 91 | 1019.0 |
| 20260831020205 | 65 | 93 | 0.0 | 1.0 | 0.00 | 0.00 | 0.00 | 92 | 1018.9 |
| 20260831015704 | 65 | 92 | 1.0 | 2.0 | 0.00 | 0.00 | 0.00 | 91 | 1018.9 |
| 20260831015204 | 65 | 86 | 0.0 | 0.0 | 0.00 | 0.00 | 0.00 | 91 | 1018.9 |
| 20260831014704 | 65 | 86 | 0.0 | 0.0 | 0.00 | 0.00 | 0.00 | 91 | 1018.8 |
| 20260831014204 | 65 | 86 | 0.0 | 0.0 | 0.00 | 0.00 | 0.00 | 91 | 1018.8 |
| 20260831013705 | 65 | 108 | 0.0 | 0.0 | 0.00 | 0.00 | 0.00 | 91 | 1018.9 |
| 20260831013204 | 65 | 58 | 0.0 | 0.0 | 0.00 | 0.00 | 0.00 | 92 | 1018.9 |
| 20260831012705 | 65 | 49 | 0.0 | 0.0 | 0.00 | 0.00 | 0.00 | 91 | 1018.7 |
| 20260831011704 | 65 | 318 | 2.0 | 3.0 | 0.00 | 0.00 | 0.00 | 91 | 1018.5 |
| 20260831011204 | 66 | 300 | 2.0 | 3.0 | 0.00 | 0.00 | 0.00 | 92 | 1018.5 |
| 20260831010705 | 66 | 261 | 1.0 | 2.0 | 0.00 | 0.00 | 0.00 | 92 | 1018.5 |
| 20260831005704 | 66 | 300 | 0.0 | 1.0 | 0.00 | 0.00 | 0.00 | 93 | 1018.7 |
| 20260831005204 | 66 | 300 | 0.0 | 2.0 | 0.00 | 0.00 | 0.00 | 93 | 1018.4 |
| 20260831004204 | 66 | 311 | 0.0 | 0.0 | 0.00 | 0.00 | 0.00 | 92 | 1018.3 |
| 20260831003704 | 66 | 311 | 0.0 | 0.0 | 0.00 | 0.00 | 0.00 | 92 | 1018.1 |
| 20260831003204 | 66 | 311 | 0.0 | 0.0 | 0.00 | 0.00 | 0.00 | 91 | 1018.0 |
| 20260831002704 | 66 | 311 | 0.0 | 2.0 | 0.00 | 0.00 | 0.00 | 91 | 1018.0 |
| 20260831002204 | 66 | 298 | 0.0 | 3.0 | 0.00 | 0.00 | 0.00 | 91 | 1017.9 |
| 20260831001704 | 66 | 310 | 0.0 | 0.0 | 0.00 | 0.00 | 0.00 | 92 | 1017.8 |
| 20260831001204 | 66 | 311 | 0.0 | 0.0 | 0.00 | 0.00 | 0.00 | 92 | 1017.7 |
| 20260831000704 | 66 | 310 | 0.0 | 0.0 | 0.00 | 0.00 | 0.00 | 92 | 1017.5 |
| 20260830235704 | 66 | 301 | 0.0 | 0.0 | 0.00 | 0.00 | 0.00 | 92 | 1017.4 |
| 20260830235204 | 66 | 289 | 0.0 | 1.0 | 0.00 | 0.00 | 0.00 | 91 | 1017.4 |
| 20260830234704 | 66 | 291 | 1.0 | 2.0 | 0.00 | 0.00 | 0.00 | 91 | 1017.2 |
| 20260830234204 | 66 | 298 | 1.0 | 2.0 | 0.00 | 0.00 | 0.00 | 90 | 1017.1 |
| 20260830233704 | 66 | 298 | 1.0 | 2.0 | 0.00 | 0.00 | 0.00 | 90 | 1017.1 |
| 20260830233204 | 67 | 308 | 2.0 | 3.0 | 0.00 | 0.00 | 0.00 | 90 | 1017.0 |
| 20260830232703 | 67 | 291 | 2.0 | 3.0 | 0.00 | 0.00 | 0.00 | 90 | 1017.1 |
| 20260830232204 | 67 | 299 | 1.0 | 2.0 | 0.00 | 0.00 | 0.00 | 90 | 1017.1 |
| 20260830231704 | 67 | 299 | 1.0 | 2.0 | 0.00 | 0.00 | 0.00 | 89 | 1017.2 |
| 20260830231205 | 67 | 300 | 2.0 | 3.0 | 0.00 | 0.00 | 0.00 | 90 | 1017.1 |
| 20260830230705 | 67 | 297 | 2.0 | 3.0 | 0.00 | 0.00 | 0.00 | 88 | 1017.2 |
| 20260830230204 | 68 | 291 | 2.0 | 8.0 | 0.00 | 0.00 | 0.00 | 88 | 1017.2 |
| 20260830225704 | 68 | 291 | 3.0 | 6.0 | 0.00 | 0.00 | 0.00 | 88 | 1017.2 |
| 20260830225204 | 69 | 300 | 3.0 | 7.0 | 0.00 | 0.00 | 0.00 | 88 | 1017.3 |
| 20260830224704 | 69 | 296 | 1.0 | 3.0 | 0.00 | 0.00 | 0.00 | 88 | 1017.2 |
| 20260830224204 | 70 | 332 | 0.0 | 0.0 | 0.00 | 0.00 | 0.00 | 89 | 1017.1 |
| 20260830223704 | 70 | 332 | 0.0 | 0.0 | 0.00 | 0.00 | 0.00 | 88 | 1017.0 |
| 20260830223204 | 70 | 9 | 0.0 | 0.0 | 0.00 | 0.00 | 0.00 | 88 | 1017.0 |
| 20260830222703 | 70 | 9 | 0.0 | 0.0 | 0.00 | 0.00 | 0.00 | 87 | 1017.0 |
| 20260830222205 | 71 | 9 | 0.0 | 0.0 | 0.00 | 0.00 | 0.00 | 87 | 1017.0 |
| 20260830221705 | 71 | 9 | 0.0 | 0.0 | 0.00 | 0.00 | 0.00 | 88 | 1017.0 |
| 20260830221205 | 71 | 9 | 0.0 | 0.0 | 0.00 | 0.00 | 0.00 | 85 | 1017.0 |
| 20260830220705 | 71 | 9 | 0.0 | 0.0 | 0.00 | 0.00 | 0.00 | 87 | 1017.2 |
| 20260830220205 | 71 | 101 | 0.0 | 0.0 | 0.00 | 0.00 | 0.00 | 86 | 1017.1 |
| 20260830215705 | 71 | 88 | 0.0 | 0.0 | 0.00 | 0.00 | 0.00 | 85 | 1017.1 |
| 20260830215205 | 71 | 88 | 0.0 | 0.0 | 0.00 | 0.00 | 0.00 | 85 | 1017.0 |
| 20260830214705 | 71 | 88 | 0.0 | 0.0 | 0.00 | 0.00 | 0.00 | 86 | 1016.8 |
| 20260830213706 | 71 | 113 | 0.0 | 0.0 | 0.00 | 0.00 | 0.00 | 86 | 1016.7 |
| 20260830212705 | 72 | 144 | 0.0 | 1.0 | 0.00 | 0.00 | 0.00 | 85 | 1016.6 |
| 20260830210707 | 72 | 219 | 0.0 | 0.0 | 0.00 | 0.00 | 0.00 | 81 | 1016.9 |
| 20260830210205 | 73 | 219 | 0.0 | 0.0 | 0.00 | 0.00 | 0.00 | 80 | 1016.9 |
| 20260830205705 | 73 | 219 | 0.0 | 0.0 | 0.00 | 0.00 | 0.00 | 80 | 1016.8 |
| 20260830205205 | 73 | 220 | 0.0 | 0.0 | 0.00 | 0.00 | 0.00 | 80 | 1016.8 |
| 20260830204705 | 73 | 223 | 0.0 | 0.0 | 0.00 | 0.00 | 0.00 | 80 | 1016.9 |
| 20260830204205 | 73 | 223 | 0.0 | 1.0 | 0.00 | 0.00 | 0.00 | 79 | 1016.8 |
| 20260830203704 | 73 | 221 | 1.0 | 3.0 | 0.00 | 0.00 | 0.00 | 78 | 1016.8 |
| 20260830203205 | 73 | 223 | 1.0 | 2.0 | 0.00 | 0.00 | 0.00 | 79 | 1016.7 |
| 20260830202705 | 73 | 220 | 1.0 | 3.0 | 0.00 | 0.00 | 0.00 | 79 | 1016.8 |
| 20260830202205 | 74 | 249 | 0.0 | 2.0 | 0.00 | 0.00 | 0.00 | 80 | 1016.8 |
| 20260830201705 | 74 | 225 | 0.0 | 0.0 | 0.00 | 0.00 | 0.00 | 78 | 1016.9 |
| 20260830200705 | 74 | 225 | 0.0 | 2.0 | 0.00 | 0.00 | 0.00 | 78 | 1016.9 |
| 20260830200205 | 75 | 224 | 1.0 | 3.0 | 0.00 | 0.00 | 0.00 | 77 | 1016.9 |
| 20260830195705 | 75 | 215 | 0.0 | 0.0 | 0.00 | 0.00 | 0.00 | 79 | 1016.9 |
| 20260830195205 | 74 | 225 | 0.0 | 2.0 | 0.00 | 0.00 | 0.00 | 77 | 1016.9 |
| 20260830194206 | 75 | 230 | 2.0 | 3.0 | 0.00 | 0.00 | 0.00 | 78 | 1017.0 |
| 20260830193704 | 75 | 230 | 2.0 | 5.0 | 0.00 | 0.00 | 0.00 | 75 | 1017.0 |
| 20260830193205 | 75 | 220 | 1.0 | 3.0 | 0.00 | 0.00 | 0.00 | 76 | 1017.0 |
| 20260830192706 | 75 | 215 | 1.0 | 3.0 | 0.00 | 0.00 | 0.00 | 77 | 1017.1 |
| 20260830191705 | 75 | 216 | 0.0 | 2.0 | 0.00 | 0.00 | 0.00 | 75 | 1017.3 |
| 20260830191205 | 75 | 216 | 1.0 | 2.0 | 0.00 | 0.00 | 0.00 | 76 | 1017.4 |
| 20260830190706 | 75 | 225 | 1.0 | 2.0 | 0.00 | 0.00 | 0.00 | 74 | 1017.5 |
| 20260830190204 | 75 | 231 | 1.0 | 2.0 | 0.00 | 0.00 | 0.00 | 73 | 1017.5 |
| 20260830185705 | 75 | 260 | 1.0 | 3.0 | 0.00 | 0.00 | 0.00 | 74 | 1017.5 |
| 20260830185205 | 75 | 181 | 2.0 | 5.0 | 0.00 | 0.00 | 0.00 | 77 | 1017.4 |
| 20260830184705 | 74 | 230 | 1.0 | 6.0 | 0.00 | 0.00 | 0.00 | 77 | 1017.5 |
| 20260830184204 | 73 | 181 | 1.0 | 3.0 | 0.00 | 0.00 | 0.00 | 76 | 1017.5 |
| 20260830183705 | 73 | 213 | 0.0 | 1.0 | 0.00 | 0.00 | 0.00 | 79 | 1017.6 |
| 20260830183204 | 72 | 209 | 0.0 | 2.0 | 0.00 | 0.00 | 0.00 | 81 | 1017.6 |
| 20260830182705 | 72 | 218 | 1.0 | 5.0 | 0.00 | 0.00 | 0.00 | 81 | 1017.6 |
| 20260830182205 | 71 | 189 | 2.0 | 5.0 | 0.00 | 0.00 | 0.00 | 79 | 1017.8 |
| 20260830181705 | 72 | 199 | 0.0 | 3.0 | 0.00 | 0.00 | 0.00 | 79 | 1017.9 |
| 20260830180705 | 72 | 228 | 0.0 | 2.0 | 0.00 | 0.00 | 0.00 | 75 | 1017.9 |
| 20260830180205 | 73 | 210 | 1.0 | 2.0 | 0.00 | 0.00 | 0.00 | 74 | 1017.8 |
| 20260830175705 | 73 | 249 | 2.0 | 3.0 | 0.00 | 0.00 | 0.00 | 73 | 1017.8 |
| 20260830175205 | 74 | 229 | 2.0 | 3.0 | 0.00 | 0.00 | 0.00 | 71 | 1017.8 |
| 20260830174705 | 74 | 222 | 1.0 | 2.0 | 0.00 | 0.00 | 0.00 | 73 | 1017.9 |
| 20260830174205 | 74 | 222 | 1.0 | 3.0 | 0.00 | 0.00 | 0.00 | 72 | 1017.8 |
| 20260830173705 | 75 | 223 | 0.0 | 3.0 | 0.00 | 0.00 | 0.00 | 71 | 1017.9 |
| 20260830173205 | 75 | 200 | 1.0 | 6.0 | 0.00 | 0.00 | 0.00 | 68 | 1018.1 |
| 20260830172705 | 75 | 200 | 3.0 | 6.0 | 0.00 | 0.00 | 0.00 | 69 | 1018.1 |
| 20260830171706 | 76 | 136 | 1.0 | 7.0 | 0.00 | 0.00 | 0.00 | 72 | 1018.3 |
| 20260830171204 | 75 | 204 | 3.0 | 7.0 | 0.00 | 0.00 | 0.00 | 70 | 1018.1 |
| 20260830170705 | 76 | 206 | 2.0 | 6.0 | 0.00 | 0.00 | 0.00 | 69 | 1018.4 |
| 20260830170205 | 76 | 208 | 3.0 | 7.0 | 0.00 | 0.00 | 0.00 | 68 | 1018.5 |
| 20260830165706 | 76 | 191 | 3.0 | 7.0 | 0.00 | 0.00 | 0.00 | 68 | 1018.5 |
| 20260830164705 | 76 | 213 | 3.0 | 7.0 | 0.00 | 0.00 | 0.00 | 74 | 1018.5 |
| 20260830164205 | 76 | 219 | 1.0 | 3.0 | 0.00 | 0.00 | 0.00 | 71 | 1018.5 |
| 20260830163705 | 75 | 251 | 2.0 | 3.0 | 0.00 | 0.00 | 0.00 | 72 | 1018.5 |
| 20260830163206 | 75 | 220 | 1.0 | 5.0 | 0.00 | 0.00 | 0.00 | 70 | 1018.6 |
| 20260830162705 | 74 | 189 | 3.0 | 7.0 | 0.00 | 0.00 | 0.00 | 74 | 1018.6 |
| 20260830162205 | 74 | 190 | 1.0 | 6.0 | 0.00 | 0.00 | 0.00 | 72 | 1018.7 |
| 20260830161705 | 74 | 232 | 2.0 | 3.0 | 0.00 | 0.00 | 0.00 | 73 | 1018.9 |
| 20260830160706 | 74 | 236 | 2.0 | 3.0 | 0.00 | 0.00 | 0.00 | 72 | 1019.0 |
| 20260830160205 | 74 | 225 | 1.0 | 3.0 | 0.00 | 0.00 | 0.00 | 69 | 1019.2 |
| 20260830155705 | 75 | 225 | 2.0 | 3.0 | 0.00 | 0.00 | 0.00 | 69 | 1019.2 |
| 20260830154205 | 74 | 233 | 2.0 | 5.0 | 0.00 | 0.00 | 0.00 | 71 | 1019.4 |
| 20260830153704 | 74 | 199 | 3.0 | 5.0 | 0.00 | 0.00 | 0.00 | 70 | 1019.4 |
| 20260830153205 | 74 | 212 | 2.0 | 5.0 | 0.00 | 0.00 | 0.00 | 70 | 1019.5 |
| 20260830152205 | 74 | 123 | 2.0 | 6.0 | 0.00 | 0.00 | 0.00 | 74 | 1019.5 |
| 20260830151705 | 74 | 209 | 3.0 | 5.0 | 0.00 | 0.00 | 0.00 | 72 | 1019.6 |
| 20260830151204 | 73 | 241 | 2.0 | 3.0 | 0.00 | 0.00 | 0.00 | 74 | 1019.5 |
| 20260830150705 | 72 | 256 | 3.0 | 7.0 | 0.00 | 0.00 | 0.00 | 71 | 1019.6 |
| 20260830150205 | 72 | 157 | 2.0 | 6.0 | 0.00 | 0.00 | 0.00 | 73 | 1019.5 |
| 20260830145704 | 72 | 135 | 2.0 | 5.0 | 0.00 | 0.00 | 0.00 | 74 | 1019.4 |
| 20260830145204 | 72 | 155 | 2.0 | 3.0 | 0.00 | 0.00 | 0.00 | 72 | 1019.6 |
| 20260830144705 | 72 | 185 | 2.0 | 7.0 | 0.00 | 0.00 | 0.00 | 72 | 1019.5 |
| 20260830144205 | 72 | 191 | 2.0 | 3.0 | 0.00 | 0.00 | 0.00 | 73 | 1019.8 |
| 20260830143704 | 73 | 252 | 2.0 | 5.0 | 0.00 | 0.00 | 0.00 | 71 | 1019.6 |
| 20260830143205 | 74 | 223 | 2.0 | 3.0 | 0.00 | 0.00 | 0.00 | 72 | 1019.7 |
| 20260830142705 | 73 | 226 | 2.0 | 8.0 | 0.00 | 0.00 | 0.00 | 74 | 1019.5 |
| 20260830142205 | 72 | 212 | 3.0 | 7.0 | 0.00 | 0.00 | 0.00 | 73 | 1019.7 |
| 20260830141704 | 72 | 209 | 2.0 | 7.0 | 0.00 | 0.00 | 0.00 | 72 | 1019.7 |
| 20260830140705 | 72 | 201 | 3.0 | 9.0 | 0.00 | 0.00 | 0.00 | 73 | 1019.6 |
| 20260830140205 | 71 | 176 | 3.0 | 7.0 | 0.00 | 0.00 | 0.00 | 76 | 1019.8 |
| 20260830135205 | 70 | 169 | 2.0 | 8.0 | 0.00 | 0.00 | 0.00 | 74 | 1019.8 |
| 20260830134704 | 70 | 71 | 2.0 | 9.0 | 0.00 | 0.00 | 0.00 | 75 | 1019.8 |
| 20260830134205 | 71 | 194 | 3.0 | 7.0 | 0.00 | 0.00 | 0.00 | 72 | 1019.9 |
| 20260830133705 | 71 | 143 | 0.0 | 7.0 | 0.00 | 0.00 | 0.00 | 71 | 1019.9 |
| 20260830133204 | 71 | 177 | 2.0 | 6.0 | 0.00 | 0.00 | 0.00 | 74 | 1020.0 |
| 20260830132205 | 71 | 213 | 5.0 | 10.0 | 0.00 | 0.00 | 0.00 | 72 | 1020.1 |
| 20260830131705 | 71 | 226 | 3.0 | 9.0 | 0.00 | 0.00 | 0.00 | 71 | 1020.1 |
| 20260830131205 | 71 | 196 | 4.0 | 12.0 | 0.00 | 0.00 | 0.00 | 71 | 1020.3 |
| 20260830130206 | 70 | 139 | 3.0 | 8.0 | 0.00 | 0.00 | 0.00 | 73 | 1020.3 |
| 20260830125705 | 70 | 145 | 2.0 | 6.0 | 0.00 | 0.00 | 0.00 | 76 | 1020.3 |
| 20260830125205 | 69 | 169 | 3.0 | 9.0 | 0.00 | 0.00 | 0.00 | 74 | 1020.4 |
| 20260830124705 | 69 | 112 | 2.0 | 3.0 | 0.00 | 0.00 | 0.00 | 76 | 1020.5 |
| 20260830124205 | 68 | 196 | 1.0 | 3.0 | 0.00 | 0.00 | 0.00 | 75 | 1020.5 |
| 20260830123705 | 68 | 158 | 2.0 | 7.0 | 0.00 | 0.00 | 0.00 | 78 | 1020.6 |
| 20260830123204 | 66 | 113 | 2.0 | 7.0 | 0.00 | 0.00 | 0.00 | 79 | 1020.7 |
| 20260830122705 | 65 | 121 | 2.0 | 3.0 | 0.00 | 0.00 | 0.00 | 80 | 1020.7 |
| 20260830122205 | 65 | 148 | 2.0 | 3.0 | 0.00 | 0.00 | 0.00 | 80 | 1020.7 |
| 20260830120705 | 65 | 206 | 1.0 | 3.0 | 0.00 | 0.00 | 0.00 | 77 | 1020.6 |
| 20260830120205 | 66 | 181 | 1.0 | 5.0 | 0.00 | 0.00 | 0.00 | 77 | 1020.5 |
| 20260830114205 | 64 | 158 | 1.0 | 2.0 | 0.00 | 0.00 | 0.00 | 78 | 1020.6 |
| 20260830113705 | 64 | 199 | 1.0 | 7.0 | 0.00 | 0.00 | 0.00 | 80 | 1020.5 |
| 20260830113205 | 64 | 190 | 0.0 | 1.0 | 0.00 | 0.00 | 0.00 | 79 | 1020.6 |
| 20260830112205 | 63 | 154 | 1.0 | 3.0 | 0.00 | 0.00 | 0.00 | 80 | 1020.5 |
| 20260830111705 | 62 | 225 | 1.0 | 2.0 | 0.00 | 0.00 | 0.00 | 80 | 1020.6 |
| 20260830111204 | 62 | 180 | 1.0 | 8.0 | 0.00 | 0.00 | 0.00 | 82 | 1020.6 |
| 20260830110704 | 61 | 160 | 1.0 | 3.0 | 0.00 | 0.00 | 0.00 | 82 | 1020.6 |
| 20260830110205 | 61 | 159 | 2.0 | 3.0 | 0.00 | 0.00 | 0.00 | 82 | 1020.7 |
| 20260830105705 | 61 | 127 | 1.0 | 2.0 | 0.00 | 0.00 | 0.00 | 82 | 1020.6 |
| 20260830104705 | 61 | 167 | 1.0 | 2.0 | 0.00 | 0.00 | 0.00 | 81 | 1020.6 |
| 20260830104204 | 61 | 173 | 0.0 | 3.0 | 0.00 | 0.00 | 0.00 | 81 | 1020.6 |
| 20260830103205 | 61 | 269 | 1.0 | 2.0 | 0.00 | 0.00 | 0.00 | 82 | 1020.6 |
| 20260830102704 | 61 | 308 | 0.0 | 2.0 | 0.00 | 0.00 | 0.00 | 82 | 1020.7 |
| 20260830101705 | 61 | 233 | 0.0 | 0.0 | 0.00 | 0.00 | 0.00 | 82 | 1020.7 |
| 20260830101204 | 60 | 290 | 0.0 | 0.0 | 0.00 | 0.00 | 0.00 | 82 | 1020.7 |
| 20260830100705 | 60 | 319 | 0.0 | 0.0 | 0.00 | 0.00 | 0.00 | 84 | 1020.6 |
| 20260830100205 | 60 | 258 | 0.0 | 2.0 | 0.00 | 0.00 | 0.00 | 84 | 1020.6 |
| 20260830095705 | 61 | 263 | 0.0 | 2.0 | 0.00 | 0.00 | 0.00 | 83 | 1020.6 |
| 20260830094205 | 61 | 110 | 2.0 | 3.0 | 0.00 | 0.00 | 0.00 | 81 | 1020.6 |
| 20260830093705 | 61 | 133 | 1.0 | 3.0 | 0.00 | 0.00 | 0.00 | 82 | 1020.6 |
| 20260830093205 | 61 | 137 | 2.0 | 6.0 | 0.00 | 0.00 | 0.00 | 82 | 1020.6 |
| 20260830092204 | 61 | 132 | 2.0 | 3.0 | 0.00 | 0.00 | 0.00 | 81 | 1020.7 |
| 20260830091704 | 61 | 128 | 1.0 | 3.0 | 0.00 | 0.00 | 0.00 | 82 | 1020.6 |
| 20260830091204 | 61 | 146 | 2.0 | 3.0 | 0.00 | 0.00 | 0.00 | 82 | 1020.6 |
| 20260830090704 | 61 | 145 | 2.0 | 5.0 | 0.00 | 0.00 | 0.00 | 81 | 1020.6 |
| 20260830090204 | 61 | 164 | 2.0 | 5.0 | 0.00 | 0.00 | 0.00 | 82 | 1020.6 |
| 20260830085204 | 62 | 150 | 0.0 | 3.0 | 0.00 | 0.00 | 0.00 | 82 | 1020.8 |
| 20260830084704 | 62 | 200 | 2.0 | 3.0 | 0.00 | 0.00 | 0.00 | 82 | 1020.8 |
| 20260830084204 | 62 | 203 | 2.0 | 5.0 | 0.00 | 0.00 | 0.00 | 82 | 1020.9 |
| 20260830083704 | 62 | 187 | 1.0 | 3.0 | 0.00 | 0.00 | 0.00 | 81 | 1020.8 |
| 20260830083205 | 62 | 182 | 0.0 | 2.0 | 0.00 | 0.00 | 0.00 | 82 | 1020.9 |
| 20260830082705 | 62 | 122 | 0.0 | 2.0 | 0.00 | 0.00 | 0.00 | 82 | 1020.9 |
| 20260830082204 | 62 | 233 | 0.0 | 0.0 | 0.00 | 0.00 | 0.00 | 82 | 1021.0 |
| 20260830081705 | 62 | 117 | 0.0 | 1.0 | 0.00 | 0.00 | 0.00 | 83 | 1020.9 |
| 20260830081204 | 62 | 138 | 0.0 | 1.0 | 0.00 | 0.00 | 0.00 | 85 | 1020.9 |
| 20260830080704 | 62 | 22 | 0.0 | 2.0 | 0.00 | 0.00 | 0.00 | 84 | 1020.8 |
| 20260830080204 | 62 | 305 | 0.0 | 2.0 | 0.00 | 0.00 | 0.00 | 84 | 1020.7 |
| 20260830075704 | 62 | 127 | 1.0 | 2.0 | 0.00 | 0.00 | 0.00 | 84 | 1020.7 |
| 20260830074704 | 61 | 160 | 1.0 | 6.0 | 0.00 | 0.00 | 0.00 | 84 | 1020.7 |
| 20260830074204 | 61 | 118 | 4.0 | 8.0 | 0.00 | 0.00 | 0.00 | 85 | 1020.7 |
| 20260830073704 | 61 | 145 | 3.0 | 7.0 | 0.00 | 0.00 | 0.00 | 85 | 1020.7 |
| 20260830073205 | 61 | 147 | 1.0 | 3.0 | 0.00 | 0.00 | 0.00 | 85 | 1020.8 |
| 20260830072704 | 61 | 160 | 3.0 | 6.0 | 0.00 | 0.00 | 0.00 | 86 | 1020.8 |
| 20260830072204 | 61 | 170 | 3.0 | 8.0 | 0.00 | 0.00 | 0.00 | 86 | 1020.8 |
| 20260830071705 | 60 | 185 | 1.0 | 7.0 | 0.00 | 0.00 | 0.00 | 87 | 1020.8 |
| 20260830071204 | 60 | 154 | 2.0 | 6.0 | 0.00 | 0.00 | 0.00 | 86 | 1020.7 |
| 20260830070704 | 60 | 135 | 2.0 | 3.0 | 0.00 | 0.00 | 0.00 | 86 | 1020.7 |
| 20260830070204 | 60 | 132 | 2.0 | 3.0 | 0.00 | 0.00 | 0.00 | 87 | 1020.6 |
| 20260830065704 | 61 | 153 | 0.0 | 3.0 | 0.00 | 0.00 | 0.00 | 86 | 1020.7 |
| 20260830065204 | 61 | 150 | 2.0 | 3.0 | 0.00 | 0.00 | 0.00 | 85 | 1020.8 |
| 20260830064704 | 61 | 160 | 1.0 | 3.0 | 0.00 | 0.00 | 0.00 | 84 | 1020.8 |